Regional Weather Roundup
Issued by NWS Green Bay, WI

Home | Current Version | Previous Version | Graphics & Text | Print | Product List | Glossary Off
Versions: 1 2 3 4 5 6 7 8 9 10 11 12 13 14 15 16 17 18 19 20 21 22 23 24 25 26 27 28 29 30 31 32 33 34 35 36 37 38 39 40 41 42 43 44 45 46 47 48 49 50

000
ASUS43 KGRB 302259
RWRGRB

NORTH-CENTRAL AND NORTHEAST WISCONSIN REGIONAL WEATHER ROUNDUP
NATIONAL WEATHER SERVICE GREEN BAY WI
500 PM CST FRI JAN 30 2015

WIZ005-009-010>012-018-019-310000-
NORTH CENTRAL WISCONSIN

CITY           SKY/WX    TMP DP  RH WIND       PRES   REMARKS
IRONWOOD       PTCLDY    16   9  73 S7        30.24F WCI   6
MANITOWISH WTR NOT AVBL
ARBOR VITAE    NOT AVBL
EAGLE RIVER    NOT AVBL
LAND O LAKES   NOT AVBL
RHINELANDER    CLOUDY    17   2  51 SW5       30.27F WCI  10
PHILLIPS       NOT AVBL
ANTIGO         NOT AVBL
TOMAHAWK       NOT AVBL
MERRILL        NOT AVBL
$$

WIZ013-073-310000-
NORTHEAST WISCONSIN

CITY           SKY/WX    TMP DP  RH WIND       PRES   REMARKS
IRON MOUNTAIN  CLOUDY    18   5  57 S6        30.30F WCI  10
MARINETTE      CLOUDY    18   7  62 SW7       30.38F WCI   8
$$

WIZ017-030-035>037-045-310000-
CENTRAL WISCONSIN

CITY           SKY/WX    TMP DP  RH WIND       PRES   REMARKS
MEDFORD        NOT AVBL
WAUSAU         PTCLDY    17   4  56 W5        30.32F WCI  10
MOSINEE        NOT AVBL
MARSHFIELD     PTCLDY    20   6  55 CALM      30.33F
WISC RAPIDS    PTCLDY    20   6  55 S6        30.37F
STEVENS POINT  NOT AVBL
WAUPACA        NOT AVBL
SHAWANO        NOT AVBL
CLINTONVILLE   NOT AVBL
$$

WIZ038-039-048-051-310000-
FOX VALLEY

CITY           SKY/WX    TMP DP  RH WIND       PRES   REMARKS
NWS GREEN BAY  MOCLDY    21   9  59 SW5       30.40S
APPLETON       MOCLDY    19   9  63 VRB5      30.39S
OSHKOSH        PTCLDY    22   9  57 SW5       30.39F
FOND DU LAC    PTCLDY    22   8  55 S5        30.38F
$$

WIZ022-050-052-310000-
EAST CENTRAL WISCONSIN

CITY           SKY/WX    TMP DP  RH WIND       PRES   REMARKS
STURGEON BAY   CLOUDY    18   5  57 SW7       30.41S WCI   8
MANITOWOC      NOT AVBL
SHEBOYGAN      CLEAR     22   9  57 W9        30.39F
$$

LMZ563-521-522-541>543-310000-
LAKESHORE

STATION/POSITION TIME  TEMP    WIND        PRES    VSBY  WAVE
                       AIR SEA DIR/SP/G                  HT/PER
                 (UTC) (F)     (DEG/KT/KT) (MB)    (MI)  (FT/S)
SHEBOYGAN LKSHOR 2200   22     160/  7/ 10 1031.5F
KEWAUNEE LKSHORE 2200   20     230/  2/  4 1028.6F
NORTHPORT PIER   2200   18     170/  2/  7 1029.5F
SISTER BAY LKSHO 2200             CALM       N/A
STURGEON BAY CG  2200   20 32  290/  5       N/A       6   0
CHAMBERS ISLAND  2200   16     160/  5/  8 1029.5F
MENOMINEE LKSHOR 2200   17     200/  5     1029.7F
$$


USA.gov is the U.S. government's official web portal to all federal, state and local government web resources and services.